SDM6256 UHBB-UUEE

Flight info

Callsign SDM6256
Flight time N/A
Altitude 34000
Route RUNET M160 BADOM N620 UDRIL G229 GU N746 SOSNA R813 OTRIS/K0893F360 R813 URAMI G483 KANAL B229 UNISO N869 REKPA N181 ROMTA
Aircraft B77W/H-SDE1E2E3FGHIJ2J3J4J5M1RWXY/LB1D1

Departure

Time 2026-04-19 22:54
Airport Ignatyevo Airport (UHBB)

Arrival

Time N/A
Airport Sheremetyevo International Airport (UUEE)
Time Latitude Longitude Altitude Speed Heading
2026-04-19 22:03 50.42414 127.40841 652 ft 0 kts 258°
2026-04-19 22:41 50.42415 127.40851 652 ft 2 kts 258°
2026-04-19 22:41 50.42418 127.40874 652 ft 2 kts 258°
2026-04-19 22:42 50.42421 127.40897 652 ft 2 kts 258°
2026-04-19 22:42 50.42424 127.40919 652 ft 2 kts 258°
2026-04-19 22:42 50.42427 127.40942 652 ft 2 kts 246°
2026-04-19 22:42 50.42437 127.40962 652 ft 2 kts 214°
2026-04-19 22:43 50.42450 127.40971 652 ft 2 kts 188°
2026-04-19 22:43 50.42465 127.40970 652 ft 2 kts 161°
2026-04-19 22:43 50.42475 127.40964 652 ft 0 kts 165°
2026-04-19 22:43 50.42478 127.40963 652 ft 0 kts 167°
2026-04-19 22:47 50.42476 127.40964 652 ft 1 kts 167°
2026-04-19 22:47 50.42456 127.40968 652 ft 4 kts 173°
2026-04-19 22:48 50.42396 127.40985 652 ft 9 kts 168°
2026-04-19 22:48 50.42332 127.41007 652 ft 8 kts 167°
2026-04-19 22:48 50.42276 127.41026 652 ft 7 kts 167°
2026-04-19 22:48 50.42222 127.41066 652 ft 9 kts 130°
2026-04-19 22:49 50.42220 127.41189 652 ft 13 kts 78°
2026-04-19 22:49 50.42240 127.41348 652 ft 16 kts 79°
2026-04-19 22:49 50.42262 127.41534 652 ft 18 kts 79°
2026-04-19 22:49 50.42326 127.41666 652 ft 16 kts 353°
2026-04-19 22:50 50.42433 127.41633 652 ft 15 kts 348°
2026-04-19 22:50 50.42533 127.41602 652 ft 14 kts 348°
2026-04-19 22:50 50.42642 127.41567 652 ft 17 kts 348°
2026-04-19 22:50 50.42774 127.41523 651 ft 20 kts 348°
2026-04-19 22:51 50.42926 127.41472 651 ft 23 kts 347°
2026-04-19 22:51 50.43286 127.41353 651 ft 29 kts 347°
2026-04-19 22:51 50.43494 127.41290 651 ft 31 kts 351°
2026-04-19 22:52 50.43718 127.41220 651 ft 33 kts 346°
2026-04-19 22:52 50.43904 127.41159 651 ft 17 kts 352°
2026-04-19 22:52 50.43992 127.41178 651 ft 4 kts 327°
2026-04-19 22:52 50.43990 127.41151 651 ft 2 kts 213°
2026-04-19 22:53 50.43966 127.41148 651 ft 5 kts 172°
2026-04-19 22:53 50.43925 127.41157 651 ft 0 kts 170°
2026-04-19 22:53 50.43882 127.41169 651 ft 26 kts 168°
2026-04-19 22:54 50.43425 127.41315 651 ft 106 kts 168°
2026-04-19 22:54 50.42459 127.41634 734 ft 166 kts 170°
2026-04-19 22:54 50.41917 127.41821 973 ft 176 kts 170°
2026-04-19 22:54 50.40736 127.42211 1843 ft 181 kts 172°
2026-04-19 22:55 50.39513 127.42622 2541 ft 183 kts 173°
2026-04-19 22:55 50.38255 127.43026 3345 ft 182 kts 172°
2026-04-19 22:55 50.37086 127.43346 4116 ft 179 kts 172°
2026-04-19 22:55 50.35732 127.43826 4007 ft 215 kts 170°
2026-04-19 22:56 50.34210 127.44371 3990 ft 236 kts 166°
2026-04-19 22:56 50.32812 127.45714 3965 ft 244 kts 136°
2026-04-19 22:56 50.32000 127.48174 3973 ft 265 kts 106°
2026-04-19 22:56 50.32053 127.51050 3965 ft 270 kts 77°
2026-04-19 22:57 50.33033 127.53667 4218 ft 294 kts 44°
2026-04-19 22:57 50.34740 127.55250 5334 ft 289 kts 17°
2026-04-19 22:57 50.36718 127.55698 6111 ft 293 kts 359°
2026-04-19 22:57 50.38753 127.55725 7035 ft 294 kts 357°
2026-04-19 22:58 50.40792 127.55724 7867 ft 298 kts 358°
2026-04-19 22:58 50.42866 127.55720 8563 ft 307 kts 358°
2026-04-19 22:58 50.45013 127.55716 9364 ft 310 kts 359°
2026-04-19 22:58 50.47199 127.55713 10010 ft 320 kts 360°
2026-04-19 22:59 50.49458 127.55710 10354 ft 340 kts 360°
2026-04-19 22:59 50.51890 127.55708 10752 ft 358 kts 360°
2026-04-19 22:59 50.54452 127.55706 11180 ft 376 kts 360°
2026-04-19 22:59 50.57106 127.55704 11690 ft 390 kts
2026-04-19 23:00 50.59884 127.55428 12102 ft 407 kts 352°
2026-04-19 23:00 50.62688 127.54830 12788 ft 415 kts 351°
2026-04-19 23:00 50.65561 127.54198 13676 ft 418 kts 351°
2026-04-19 23:00 50.68454 127.53560 14358 ft 425 kts 351°
2026-04-19 23:01 50.71401 127.52910 15025 ft 433 kts 351°
2026-04-19 23:01 50.74388 127.52249 15762 ft 438 kts 352°
2026-04-19 23:01 50.77383 127.51586 16489 ft 443 kts 352°
2026-04-19 23:01 50.80480 127.50900 17233 ft 448 kts 352°
2026-04-19 23:02 50.83552 127.50218 17840 ft 455 kts 352°
2026-04-19 23:02 50.86717 127.49515 18493 ft 461 kts 352°
2026-04-19 23:02 50.89880 127.48811 19138 ft 467 kts 352°
2026-04-19 23:02 50.93095 127.48096 19830 ft 470 kts 352°
2026-04-19 23:03 50.96384 127.47362 20426 ft 476 kts 352°
2026-04-19 23:03 50.99645 127.46633 20941 ft 484 kts 352°
2026-04-19 23:03 51.02973 127.45889 21518 ft 489 kts 351°
2026-04-19 23:03 51.06383 127.45125 22139 ft 492 kts 351°
2026-04-19 23:04 51.09729 127.44374 22740 ft 496 kts 351°
2026-04-19 23:04 51.13184 127.43597 23226 ft 501 kts 351°
2026-04-19 23:04 51.16645 127.42818 23624 ft 509 kts 351°
2026-04-19 23:04 51.20133 127.42031 24069 ft 514 kts 351°
2026-04-19 23:05 51.23723 127.41221 24567 ft 518 kts 351°
2026-04-19 23:05 51.27244 127.40424 25104 ft 520 kts 351°
2026-04-19 23:05 51.30863 127.39604 25597 ft 523 kts 352°
2026-04-19 23:05 51.34438 127.38793 26064 ft 527 kts 351°
2026-04-19 23:06 51.38104 127.37960 26570 ft 530 kts 352°
2026-04-19 23:06 51.41711 127.37139 27078 ft 532 kts 351°
2026-04-19 23:06 51.47200 127.35888 27748 ft 537 kts 352°
2026-04-19 23:07 51.57567 127.33515 28959 ft 548 kts 352°
2026-04-19 23:08 51.70448 127.30552 31021 ft 546 kts 352°
2026-04-19 23:08 51.79344 127.28496 32613 ft 538 kts 352°
2026-04-19 23:09 51.83069 127.27632 33042 ft 538 kts 353°
2026-04-19 23:09 51.86777 127.26771 33388 ft 539 kts 352°
2026-04-19 23:09 51.94194 127.25046 33498 ft 539 kts 352°
2026-04-19 23:10 52.01561 127.23325 33526 ft 535 kts 352°
2026-04-19 23:10 52.08931 127.21598 33479 ft 538 kts 353°
2026-04-19 23:11 52.16323 127.19860 33476 ft 534 kts 353°
2026-04-19 23:11 52.23703 127.18121 33483 ft 538 kts 353°
2026-04-19 23:12 52.31070 127.16377 33491 ft 536 kts 352°
2026-04-19 23:12 52.38417 127.14513 33472 ft 536 kts 347°
2026-04-19 23:13 52.45351 127.10296 33492 ft 534 kts 329°
2026-04-19 23:13 52.51465 127.03396 33490 ft 535 kts 320°
2026-04-19 23:14 52.57332 126.96025 33491 ft 533 kts 320°
2026-04-19 23:14 52.63222 126.88583 33509 ft 532 kts 320°
2026-04-19 23:15 52.69063 126.81174 33545 ft 532 kts 320°
2026-04-19 23:15 52.74863 126.73787 33499 ft 532 kts 320°
2026-04-19 23:16 52.80719 126.66300 33496 ft 532 kts 320°
2026-04-19 23:16 52.86551 126.58820 33474 ft 530 kts 320°
2026-04-19 23:17 52.92387 126.51305 33513 ft 531 kts 320°
2026-04-19 23:17 52.98197 126.43800 33523 ft 531 kts 320°
2026-04-19 23:18 53.03988 126.36290 33494 ft 531 kts 321°
2026-04-19 23:18 53.09802 126.28725 33535 ft 533 kts 320°
2026-04-19 23:19 53.15622 126.21127 33494 ft 530 kts 319°
2026-04-19 23:19 53.21394 126.13562 33511 ft 531 kts 320°
2026-04-19 23:20 53.27189 126.05943 33517 ft 528 kts 320°
2026-04-19 23:20 53.32951 125.98338 33555 ft 533 kts 320°
2026-04-19 23:21 53.38734 125.90680 33544 ft 527 kts 320°
2026-04-19 23:21 53.44469 125.83057 33528 ft 530 kts 320°
2026-04-19 23:22 53.49686 125.74414 33515 ft 528 kts 308°
2026-04-19 23:22 53.54419 125.65202 33553 ft 523 kts 308°
2026-04-19 23:23 53.59164 125.55905 33526 ft 523 kts 308°
2026-04-19 23:23 53.63864 125.46654 33515 ft 522 kts 308°
2026-04-19 23:24 53.68550 125.37394 33505 ft 522 kts 308°
2026-04-19 23:24 53.73257 125.28054 33524 ft 521 kts 308°
2026-04-19 23:25 53.77948 125.18710 33504 ft 523 kts 308°
2026-04-19 23:25 53.82594 125.09422 33524 ft 520 kts 308°
2026-04-19 23:26 53.87305 125.00011 33515 ft 521 kts 308°
2026-04-19 23:26 53.91969 124.90674 33548 ft 522 kts 308°
2026-04-19 23:27 53.96630 124.81303 33572 ft 522 kts 308°
2026-04-19 23:27 54.01274 124.71931 33548 ft 522 kts 308°
2026-04-19 23:28 54.05923 124.62513 33546 ft 520 kts 308°
2026-04-19 23:28 54.10563 124.53056 33522 ft 521 kts 308°
2026-04-19 23:29 54.15185 124.43529 33504 ft 519 kts 308°
2026-04-19 23:29 54.19760 124.34065 33544 ft 521 kts 307°
2026-04-19 23:30 54.24320 124.24598 33554 ft 518 kts 307°
2026-04-19 23:30 54.28891 124.15070 33522 ft 519 kts 308°
2026-04-19 23:31 54.33431 124.05573 33578 ft 517 kts 308°
2026-04-19 23:31 54.37987 123.96006 33554 ft 517 kts 308°
2026-04-19 23:32 54.42495 123.86504 33539 ft 519 kts 308°
2026-04-19 23:32 54.47033 123.76900 33545 ft 518 kts 308°
2026-04-19 23:33 54.51538 123.67329 33557 ft 519 kts 308°
2026-04-19 23:33 54.56040 123.57729 33560 ft 516 kts 308°
2026-04-19 23:34 54.60564 123.48041 33587 ft 518 kts 308°
2026-04-19 23:34 54.65022 123.38460 33524 ft 516 kts 308°
2026-04-19 23:35 54.69518 123.28758 33539 ft 516 kts 308°
2026-04-19 23:35 54.73970 123.19114 33552 ft 517 kts 308°
2026-04-19 23:36 54.78419 123.09429 33540 ft 515 kts 308°
2026-04-19 23:36 54.82871 122.99681 33543 ft 518 kts 308°
2026-04-19 23:37 54.87309 122.89925 33508 ft 515 kts 308°
2026-04-19 23:37 54.91737 122.80156 33549 ft 517 kts 308°
2026-04-19 23:38 54.96139 122.70403 33612 ft 515 kts 308°
2026-04-19 23:38 55.00525 122.60648 33606 ft 514 kts 308°
2026-04-19 23:39 55.04940 122.50789 33601 ft 515 kts 308°
2026-04-19 23:39 55.09300 122.41016 33600 ft 514 kts 308°
2026-04-19 23:40 55.13682 122.31151 33609 ft 514 kts 308°
2026-04-19 23:40 55.18058 122.21258 33586 ft 514 kts 307°
2026-04-19 23:41 55.22410 122.11357 33603 ft 514 kts 308°
2026-04-19 23:41 55.26728 122.01492 33649 ft 512 kts 308°
2026-04-19 23:42 55.31062 121.91556 33640 ft 513 kts 308°
2026-04-19 23:42 55.35356 121.81670 33651 ft 514 kts 308°
2026-04-19 23:43 55.39678 121.71678 33644 ft 513 kts 308°
2026-04-19 23:43 55.43973 121.61710 33660 ft 512 kts 308°
2026-04-19 23:44 55.48250 121.51743 33655 ft 511 kts 308°
2026-04-19 23:44 55.52505 121.41791 33652 ft 511 kts 308°
2026-04-19 23:45 55.56781 121.31750 33654 ft 512 kts 307°
2026-04-19 23:45 55.61002 121.21796 33663 ft 510 kts 307°
2026-04-19 23:46 55.65234 121.11774 33676 ft 509 kts 307°
2026-04-19 23:46 55.69453 121.01746 33684 ft 510 kts 307°
2026-04-19 23:47 55.73682 120.91648 33667 ft 509 kts 307°
2026-04-19 23:47 55.77875 120.81599 33678 ft 508 kts 307°
2026-04-19 23:48 55.82061 120.71523 33668 ft 509 kts 307°
2026-04-19 23:48 55.86220 120.61471 33683 ft 508 kts 307°
2026-04-19 23:49 55.90394 120.51342 33689 ft 508 kts 307°
2026-04-19 23:49 55.94530 120.41277 33687 ft 506 kts 307°
2026-04-19 23:50 55.98694 120.31107 33697 ft 508 kts 306°
2026-04-19 23:50 56.02809 120.21011 33684 ft 506 kts 306°
2026-04-19 23:51 56.06953 120.10802 33646 ft 506 kts 306°
2026-04-19 23:51 56.11069 120.00618 33651 ft 505 kts 306°
2026-04-19 23:52 56.15160 119.90455 33645 ft 506 kts 306°
2026-04-19 23:52 56.19234 119.80293 33631 ft 503 kts 306°
2026-04-19 23:53 56.23329 119.70035 33652 ft 504 kts 306°
2026-04-19 23:53 56.27379 119.59846 33661 ft 506 kts 306°
2026-04-19 23:54 56.31453 119.49554 33673 ft 505 kts 306°
2026-04-19 23:54 56.35488 119.39318 33638 ft 504 kts 306°
2026-04-19 23:55 56.39553 119.28960 33616 ft 504 kts 305°
2026-04-19 23:55 56.43559 119.18713 33603 ft 504 kts 305°
2026-04-19 23:56 56.47600 119.08330 33600 ft 504 kts 305°
2026-04-19 23:56 56.51591 118.98030 33583 ft 503 kts 305°
2026-04-19 23:57 56.55602 118.87636 33590 ft 504 kts 305°
2026-04-19 23:57 56.59587 118.77266 33618 ft 504 kts 305°
2026-04-19 23:58 56.63597 118.66784 33618 ft 505 kts 305°
2026-04-19 23:58 56.67576 118.56340 33654 ft 505 kts 305°
2026-04-19 23:59 56.71562 118.45830 33693 ft 505 kts 305°
2026-04-19 23:59 56.75525 118.35338 33729 ft 506 kts 305°
2026-04-20 00:00 56.79491 118.24792 33755 ft 505 kts 304°
2026-04-20 00:00 56.83446 118.14229 33765 ft 505 kts 304°
2026-04-20 00:01 56.87398 118.03625 33752 ft 507 kts 304°
2026-04-20 00:02 56.93310 117.87676 33702 ft 506 kts 304°
2026-04-20 00:02 56.97241 117.77016 33659 ft 507 kts 303°
2026-04-20 00:03 57.01156 117.66351 33644 ft 507 kts 303°
2026-04-20 00:03 57.05061 117.55665 33695 ft 506 kts 303°
2026-04-20 00:04 57.08977 117.44901 33737 ft 507 kts 303°
2026-04-20 00:04 57.12891 117.34096 33688 ft 506 kts 302°
2026-04-20 00:05 57.16777 117.23315 33640 ft 508 kts 302°
2026-04-20 00:05 57.20641 117.12550 33677 ft 506 kts 302°
2026-04-20 00:06 57.24505 117.01739 33706 ft 507 kts 302°
2026-04-20 00:06 57.28356 116.90914 33736 ft 505 kts 302°
2026-04-20 00:07 57.32199 116.80063 33754 ft 506 kts 302°
2026-04-20 00:07 57.36011 116.69250 33775 ft 506 kts 302°
2026-04-20 00:08 57.39856 116.58291 33804 ft 505 kts 302°
2026-04-20 00:08 57.43644 116.47427 33831 ft 505 kts 302°
2026-04-20 00:09 57.47443 116.36482 33821 ft 505 kts 302°
2026-04-20 00:09 57.51232 116.25523 33814 ft 505 kts 301°
2026-04-20 00:10 57.54991 116.14603 33818 ft 505 kts 301°
2026-04-20 00:10 57.58765 116.03587 33825 ft 503 kts 300°
2026-04-20 00:11 57.62512 115.92600 33835 ft 505 kts 301°
2026-04-20 00:11 57.66257 115.81569 33836 ft 505 kts 301°
2026-04-20 00:12 57.69994 115.70507 33830 ft 505 kts 300°
2026-04-20 00:12 57.73703 115.59480 33850 ft 504 kts 300°
2026-04-20 00:13 57.77415 115.48394 33852 ft 504 kts 300°
2026-04-20 00:13 57.81111 115.37300 33884 ft 503 kts 300°
2026-04-20 00:14 57.84822 115.26109 33916 ft 503 kts 300°
2026-04-20 00:14 57.88498 115.14974 33904 ft 503 kts 299°
2026-04-20 00:15 57.92139 115.03894 33863 ft 503 kts 300°
2026-04-20 00:15 57.95810 114.92669 33836 ft 502 kts 299°
2026-04-20 00:16 57.99463 114.81443 33839 ft 504 kts 299°
2026-04-20 00:16 58.03091 114.70243 33833 ft 503 kts 299°
2026-04-20 00:17 58.06724 114.58973 33840 ft 504 kts 299°
2026-04-20 00:17 58.10350 114.47675 33843 ft 503 kts 299°
2026-04-20 00:18 58.13966 114.36348 33852 ft 503 kts 299°
2026-04-20 00:18 58.17564 114.25030 33855 ft 501 kts 298°
2026-04-20 00:19 58.21144 114.13707 33856 ft 503 kts 298°
2026-04-20 00:19 58.24707 114.02386 33858 ft 501 kts 298°
2026-04-20 00:20 58.28265 113.91026 33850 ft 504 kts 298°
2026-04-20 00:20 58.31816 113.79635 33813 ft 502 kts 298°
2026-04-20 00:21 58.35381 113.68143 33811 ft 505 kts 298°
2026-04-20 00:21 58.38898 113.56750 33833 ft 502 kts 297°
2026-04-20 00:22 58.42418 113.45287 33844 ft 503 kts 297°
2026-04-20 00:22 58.45939 113.33771 33871 ft 501 kts 296°
2026-04-20 00:23 58.49430 113.22297 33899 ft 501 kts 296°
2026-04-20 00:23 58.52911 113.10798 33881 ft 501 kts 296°
2026-04-20 00:24 58.56396 112.99230 33867 ft 504 kts 296°
2026-04-20 00:24 58.59858 112.87683 33854 ft 501 kts 296°
2026-04-20 00:25 58.63311 112.76108 33857 ft 501 kts 296°
2026-04-20 00:25 58.66759 112.64489 33860 ft 502 kts 296°
2026-04-20 00:26 58.70167 112.52952 33883 ft 500 kts 296°
2026-04-20 00:26 58.73585 112.41318 33890 ft 501 kts 296°
2026-04-20 00:27 58.77004 112.29625 33891 ft 499 kts 295°
2026-04-20 00:27 58.80381 112.18016 33909 ft 500 kts 295°
2026-04-20 00:28 58.83945 112.06488 33937 ft 501 kts 300°
2026-04-20 00:28 58.87861 111.95405 33941 ft 501 kts 300°
2026-04-20 00:29 58.91739 111.84302 33930 ft 503 kts 300°
2026-04-20 00:29 58.95623 111.73071 33930 ft 501 kts 300°
2026-04-20 00:30 58.99464 111.61873 33927 ft 503 kts 300°
2026-04-20 00:30 59.03321 111.50565 33960 ft 503 kts 300°
2026-04-20 00:31 59.07157 111.39259 33949 ft 502 kts 300°
2026-04-20 00:31 59.10967 111.27984 33934 ft 502 kts 298°
2026-04-20 00:32 59.14802 111.16575 33920 ft 502 kts 298°
2026-04-20 00:32 59.18588 111.05257 33921 ft 502 kts 298°
2026-04-20 00:33 59.22407 110.93782 33922 ft 502 kts 298°
2026-04-20 00:33 59.26162 110.82446 33933 ft 503 kts 298°
2026-04-20 00:34 59.29944 110.70974 33949 ft 500 kts 298°
2026-04-20 00:34 59.33691 110.59548 33935 ft 502 kts 298°
2026-04-20 00:35 59.37421 110.48121 33925 ft 500 kts 298°
2026-04-20 00:35 59.41159 110.36613 33924 ft 501 kts 298°
2026-04-20 00:36 59.44875 110.25118 33934 ft 498 kts 297°
2026-04-20 00:36 59.48551 110.13686 33924 ft 497 kts 297°
2026-04-20 00:37 59.52239 110.02164 33923 ft 498 kts 297°
2026-04-20 00:37 59.55902 109.90662 33935 ft 498 kts 297°
2026-04-20 00:38 59.59585 109.79046 33906 ft 498 kts 297°
2026-04-20 00:38 59.63225 109.67504 33927 ft 497 kts 297°
2026-04-20 00:39 59.66850 109.55956 33911 ft 497 kts 297°
2026-04-20 00:39 59.70490 109.44299 33928 ft 498 kts 297°
2026-04-20 00:40 59.74100 109.32684 33923 ft 495 kts 296°
2026-04-20 00:40 59.77679 109.21106 33913 ft 496 kts 297°
2026-04-20 00:41 59.81274 109.09421 33921 ft 495 kts 297°
2026-04-20 00:41 59.84839 108.97775 33924 ft 495 kts 297°
2026-04-20 00:42 59.88381 108.86145 33927 ft 496 kts 297°
2026-04-20 00:42 59.91935 108.74418 33935 ft 493 kts 297°
2026-04-20 00:43 59.95445 108.62772 33927 ft 494 kts 297°
2026-04-20 00:43 59.98963 108.51045 33927 ft 494 kts 297°
2026-04-20 00:44 60.02471 108.39294 33914 ft 492 kts 297°
2026-04-20 00:44 60.05963 108.27535 33929 ft 491 kts 296°
2026-04-20 00:45 60.09420 108.15835 33928 ft 489 kts 296°
2026-04-20 00:45 60.12888 108.04032 33922 ft 492 kts 297°
2026-04-20 00:46 60.16317 107.92307 33933 ft 490 kts 297°
2026-04-20 00:46 60.19754 107.80493 33923 ft 490 kts 297°